Weather History for Villahermosa Airport, Mexico

Change the Weather History Date:

Wednesday, October 24, 2012

  Actual Average Record
Temperature  
Mean Temperature 78 °F -  
Max Temperature 86 °F 85 °F 93 °F (2004)
Min Temperature 69 °F 72 °F 68 °F (2007)
Cooling Degree Days 12    
Growing Degree Days 28 (Base 50)    
Moisture  
Dew Point 72 °F    
Average Humidity 84    
Maximum Humidity 100    
Minimum Humidity 62    
Precipitation  
Precipitation 0.95 in - - ()
Sea Level Pressure  
Sea Level Pressure 29.88 in    
Wind  
Wind Speed 2 mph ()    
Max Wind Speed 9 mph    
Max Gust Speed -    
Visibility 5.5 miles    
Events Fog , Rain    
Averages and records for this station are not official NWS values.
T = Trace of Precipitation, MM = Missing Value Source: Averaged Metar Reports

Daily Weather History Graph

Daily Weather History Graph

Search for Another Location

Airport:

Trip Planner

Search our weather history database for the weather conditions in past years. The results will help you decide how hot, cold, wet, or windy it might be!

Date:

Astronomy

Oct. 24, 2012 Rise Set
Actual Time 7:07 AM CDT 6:42 PM CDT
Civil Twilight 6:45 AM CDT 7:05 PM CDT
Nautical Twilight 6:19 AM CDT 7:30 PM CDT
Astronomical Twilight 5:54 AM CDT 7:56 PM CDT
Moon 3:23 PM CDT (10/24) 2:43 AM CDT (10/24)
Length of Visible Light 12h 19m
Length of Day
11h 35m
Waxing Gibbous, 76% of the Moon is Illuminated
Oct 24
Waxing Gibbous
Oct 29
Full
Nov 6
Last Quarter
Nov 13
New
Nov 20
First Quarter

Hourly Weather History & Observations

Time (CDT) Temp. Heat Index Dew Point Humidity Pressure Visibility Wind Dir Wind Speed Gust Speed Precip Events Conditions
4:56 AM 69.8 °F - 68.0 °F 94% 29.87 in 0.1 mi Calm Calm - N/A Fog Fog
5:42 AM 69.8 °F - 68.0 °F 94% 29.87 in 1.0 mi Calm Calm - N/A   Overcast
6:40 AM 69.8 °F - 68.0 °F 94% 29.91 in 4.0 mi Calm Calm - N/A   Overcast
7:45 AM 69.8 °F - 68.0 °F 94% 29.87 in 3.0 mi Calm Calm - N/A   Overcast
8:42 AM 69.8 °F - 68.0 °F 94% 29.87 in 3.0 mi Calm Calm - N/A   Overcast
9:24 AM 69.8 °F - 68.0 °F 94% 29.87 in 3.0 mi Calm Calm - N/A   Light Drizzle
9:43 AM 69.8 °F - 68.0 °F 94% 29.91 in 3.0 mi Calm Calm - N/A Rain Light Rain
10:12 AM 75.2 °F - 75.2 °F 100% 29.94 in 4.0 mi Calm Calm - N/A   Overcast
10:50 AM 78.8 °F - 75.2 °F 89% 29.93 in 7.0 mi ESE 4.6 mph - N/A   Overcast
11:01 AM 78.8 °F - 75.2 °F 89% 29.93 in 7.0 mi SE 5.8 mph - N/A   Overcast
11:43 AM 80.6 °F 85.4 °F 73.4 °F 79% 29.93 in 7.0 mi NE 4.6 mph - N/A   Overcast
12:43 PM 80.6 °F 85.4 °F 73.4 °F 79% 29.94 in 7.0 mi Calm Calm - N/A   Overcast
1:48 PM 82.4 °F 88.2 °F 73.4 °F 74% 29.87 in 7.0 mi NE 5.8 mph - N/A   Mostly Cloudy
2:45 PM 86.0 °F 93.4 °F 73.4 °F 66% 29.84 in 7.0 mi NE 8.1 mph - N/A   Scattered Clouds
3:49 PM 86.0 °F 93.4 °F 73.4 °F 66% 29.81 in 7.0 mi ENE 9.2 mph - N/A   Scattered Clouds
4:44 PM 86.0 °F 91.8 °F 71.6 °F 62% 29.81 in 7.0 mi NE 8.1 mph - N/A   Scattered Clouds
5:43 PM 86.0 °F 91.8 °F 71.6 °F 62% 29.81 in 7.0 mi NE 6.9 mph - N/A   Scattered Clouds
6:44 PM 82.4 °F 87.2 °F 71.6 °F 70% 29.83 in 7.0 mi Calm Calm - N/A   Scattered Clouds
8:01 PM 80.6 °F 84.6 °F 71.6 °F 74% 29.84 in 7.0 mi North 4.6 mph - N/A   Scattered Clouds
8:46 PM 78.8 °F - 73.4 °F 83% 29.87 in 7.0 mi Calm Calm - N/A   Scattered Clouds
9:44 PM 77.0 °F - 73.4 °F 89% 29.88 in 7.0 mi Calm Calm - N/A   Scattered Clouds
10:43 PM 75.2 °F - 73.4 °F 94% 29.90 in 7.0 mi Calm Calm - N/A   Scattered Clouds
11:46 PM 73.4 °F - 71.6 °F 94% 29.89 in 7.0 mi Calm Calm - N/A   Scattered Clouds